Weather History for Kyiv, Ukraine

Change the Weather History Date:

Saturday, September 7, 2013

  Actual Average Record
Temperature  
Mean Temperature 56 °F -  
Max Temperature 61 °F - - ()
Min Temperature 50 °F - - ()
Degree Days  
Heating Degree Days 10    
Growing Degree Days 6 (Base 50)    
Moisture  
Dew Point 53 °F    
Average Humidity 89    
Maximum Humidity 100    
Minimum Humidity 68    
Precipitation  
Precipitation 0.12 in 0.06 in - ()
Sea Level Pressure  
Sea Level Pressure 29.95 in    
Wind  
Wind Speed 8 mph ()    
Max Wind Speed 13 mph    
Max Gust Speed -    
Visibility 5.7 miles    
Events Rain    
T = Trace of Precipitation, MM = Missing Value Source: Averaged Metar Reports

Daily Weather History Graph

Daily Weather History Graph

Search for Another Location

Airport:

Trip Planner

Search our weather history database for the weather conditions in past years. The results will help you decide how hot, cold, wet, or windy it might be!

Date:

Astronomy

Sep. 07, 2013 Rise Set
Actual Time 6:21 AM EEST 7:29 PM EEST
Civil Twilight 5:48 AM EEST 8:03 PM EEST
Nautical Twilight 5:07 AM EEST 8:43 PM EEST
Astronomical Twilight 4:24 AM EEST 9:26 PM EEST
Moon 8:32 AM EEST (9/7) 7:56 PM EEST (9/7)
Length of Visible Light 14h 14m
Length of Day
13h 08m
Waxing Crescent, 4% of the Moon is Illuminated
Sep 7
Waxing Crescent
Sep 12
First Quarter
Sep 19
Full
Sep 27
Last Quarter
Oct 5
New

Hourly Weather History & Observations

Time (EEST) Temp. Dew Point Humidity Pressure Visibility Wind Dir Wind Speed Gust Speed Precip Events Conditions
12:00 AM 51 °F 50 °F 93% 29.87 in 6 mi NNW 6.7 mph - - Rain Light Rain
12:00 AM 51.8 °F 50.0 °F 94% 29.86 in 6.2 mi NNW 8.9 mph - N/A Rain Light Rain
12:30 AM 51.8 °F 50.0 °F 94% 29.86 in 6.2 mi NNW 8.9 mph - N/A Rain Light Rain
1:00 AM 51.8 °F 51.8 °F 100% 29.86 in 6.2 mi NNW 8.9 mph - N/A Rain Light Rain
1:30 AM 51.8 °F 51.8 °F 100% 29.86 in 1.6 mi NNW 8.9 mph - N/A Rain Light Rain
2:00 AM 51.8 °F 51.8 °F 100% 29.86 in 1.9 mi NNW 8.9 mph - N/A Rain Light Rain
2:30 AM 51.8 °F 51.8 °F 100% 29.86 in 1.7 mi NNW 8.9 mph - N/A Rain Light Rain
3:00 AM 52 °F 51 °F 93% 29.88 in 6 mi North 6.7 mph - - Rain Light Rain
3:00 AM 51.8 °F 51.8 °F 100% 29.86 in - NNE 6.7 mph - N/A Rain Light Rain
3:30 AM 51.8 °F 51.8 °F 100% 29.86 in 2.2 mi North 6.7 mph - N/A Rain Light Rain
4:00 AM 51.8 °F 51.8 °F 100% 29.86 in 1.8 mi NNW 6.7 mph - N/A Rain Light Rain
4:11 AM 51.8 °F 51.8 °F 100% 29.86 in 1.7 mi North 6.7 mph - N/A   Overcast
4:30 AM 51.8 °F 51.8 °F 100% 29.86 in 6.2 mi NNW 8.9 mph - N/A   Overcast
5:00 AM 51.8 °F 51.8 °F 100% 29.89 in 6.2 mi NNW 8.9 mph - N/A   Overcast
5:30 AM 51.8 °F 51.8 °F 100% 29.89 in 6.2 mi NNW 8.9 mph - N/A   Overcast
6:00 AM 52 °F 51 °F 96% 29.90 in 6 mi NNW 6.7 mph - - Rain Light Rain
6:00 AM 51.8 °F 51.8 °F 100% 29.89 in 5.0 mi NNW 6.7 mph - N/A   Overcast
6:30 AM 53.6 °F 51.8 °F 94% 29.89 in 3.1 mi NNW 6.7 mph - N/A   Overcast
6:41 AM 53.6 °F 51.8 °F 94% 29.89 in 1.7 mi NNW 6.7 mph - N/A Rain Light Rain
7:00 AM 53.6 °F 51.8 °F 94% 29.92 in 2.8 mi NW 6.7 mph - N/A Rain Light Rain
7:30 AM 53.6 °F 51.8 °F 94% 29.92 in 6.2 mi NNW 4.5 mph - N/A Rain Light Rain
8:00 AM 53.6 °F 53.6 °F 100% 29.92 in 6.2 mi NNW 8.9 mph - N/A Rain Light Rain
8:19 AM 53.6 °F 53.6 °F 100% 29.92 in - NNW 8.9 mph - N/A Rain Light Rain
8:30 AM 53.6 °F 53.6 °F 100% 29.92 in 1.8 mi NNW 8.9 mph - N/A Rain Light Rain
9:00 AM 54 °F 53 °F 93% 29.94 in 6 mi North 6.7 mph - - Rain Rain
9:00 AM 55.4 °F 53.6 °F 94% 29.92 in 6.2 mi NNW 11.2 mph - N/A   Overcast
9:30 AM 55.4 °F 53.6 °F 94% 29.95 in 6.2 mi NNW 11.2 mph - N/A   Overcast
10:00 AM 55.4 °F 53.6 °F 94% 29.95 in 6.2 mi North 11.2 mph - N/A Rain Light Rain
10:30 AM 55.4 °F 53.6 °F 94% 29.95 in 6.2 mi North 11.2 mph - N/A   Overcast
11:00 AM 55.4 °F 53.6 °F 94% 29.95 in 6.2 mi North 8.9 mph - N/A Rain Light Rain
11:30 AM 55.4 °F 53.6 °F 94% 29.95 in 6.2 mi North 8.9 mph - N/A   Overcast
12:00 PM 57.2 °F 53.6 °F 88% 29.95 in 6.2 mi NNW 11.2 mph - N/A   Overcast
12:30 PM 59.0 °F 53.6 °F 82% 29.98 in 6.2 mi NNW 11.2 mph - N/A   Overcast
1:00 PM 57.2 °F 51.8 °F 82% 29.98 in 6.2 mi NNW 11.2 mph - N/A   Overcast
1:30 PM 59.0 °F 53.6 °F 82% 29.98 in 6.2 mi North 6.7 mph - N/A   Mostly Cloudy
2:00 PM 60.8 °F 53.6 °F 77% 29.98 in 6.2 mi NNW 6.7 mph - N/A   Mostly Cloudy
2:30 PM 59.0 °F 53.6 °F 82% 29.98 in 6.2 mi NNW 11.2 mph - N/A   Mostly Cloudy
3:00 PM 59 °F 53 °F 76% 29.98 in 12 mi NNW 6.7 mph - -   Partly Cloudy
3:00 PM 60.8 °F 53.6 °F 77% 29.98 in 6.2 mi NW 11.2 mph - N/A   Mostly Cloudy
3:30 PM 60.8 °F 53.6 °F 77% 29.98 in 6.2 mi NW 11.2 mph - N/A   Overcast
4:00 PM 60.8 °F 53.6 °F 77% 29.98 in 6.2 mi NW 11.2 mph - N/A   Overcast
4:30 PM 60.8 °F 53.6 °F 77% 29.98 in 6.2 mi NW 13.4 mph - N/A   Overcast
5:00 PM 62.6 °F 53.6 °F 72% 29.98 in 6.2 mi NW 11.2 mph - N/A   Overcast
5:30 PM 60.8 °F 53.6 °F 77% 30.01 in 6.2 mi NW 11.2 mph - N/A   Overcast
6:00 PM 61 °F 53 °F 68% 30.00 in 12 mi NNW 6.7 mph - -   Overcast
6:00 PM 60.8 °F 53.6 °F 77% 30.01 in 6.2 mi NNW 11.2 mph - N/A   Overcast
6:30 PM 60.8 °F 53.6 °F 77% 30.01 in 6.2 mi NW 11.2 mph - N/A   Overcast
7:00 PM 60.8 °F 53.6 °F 77% 30.01 in 6.2 mi NW 11.2 mph - N/A   Overcast
7:30 PM 60.8 °F 53.6 °F 77% 30.01 in 6.2 mi NNW 6.7 mph - N/A Rain Light Rain
8:00 PM 59.0 °F 55.4 °F 88% 30.04 in 4.3 mi North 8.9 mph - N/A Rain Light Rain
8:30 PM 59.0 °F 55.4 °F 88% 30.04 in 6.2 mi NNW 8.9 mph - N/A   Overcast
9:00 PM 58 °F 55 °F 88% 30.06 in 12 mi North 6.7 mph - - Rain Light Rain
9:00 PM 57.2 °F 55.4 °F 94% 30.06 in 6.2 mi North 6.7 mph - N/A   Overcast
9:30 PM 57.2 °F 55.4 °F 94% 30.06 in 6.2 mi North 6.7 mph - N/A   Mostly Cloudy
10:00 PM 57.2 °F 53.6 °F 88% 30.06 in 6.2 mi NNE 6.7 mph - N/A   Mostly Cloudy
10:30 PM 57.2 °F 51.8 °F 82% 30.09 in 6.2 mi NNE 13.4 mph - N/A   Mostly Cloudy
11:00 PM 55.4 °F 50.0 °F 82% 30.09 in 6.2 mi NNE 11.2 mph - N/A   Mostly Cloudy
11:30 PM 55.4 °F 50.0 °F 82% 30.09 in 6.2 mi NNE 11.2 mph - N/A   Scattered Clouds